ONEWEB-0203 (48235 NORAD) Tracking and Keplerian Element Data

This shows tracking and keplerian element data for the satellite.

Feedback or suggestion? Click here.




ElementValue
Catalog48235
NameONEWEB-0203
Epoch Orbit195
Epoch Day173.83334491
Epoch Year2021
RAAN294.0914
Inclination87.5485
Eccentricity0.0013326
Argument of Perigee69.7724
Mean Anonmoly53.3355
Mean Motion14.36824531
Decay Rate-0.00928056
L11 48235U 21031AB 21173.83334491 -.00928056 00000-0 -33410+0 0 9990
L22 48235 87.5485 294.0914 0013326 69.7724 53.3355 14.36824531 1956

Live tracking and technical data element details for ONEWEB-0203 (NORAD 48235). ONEWEB-0203 can be tracked NOW for your location showing map with azimuth and elevation plus other details from your city location.

Track the satellite on the map from your city or location and see movement details for azimuth, elevation, latitude, longitude, range, height, and movement on the map or in text.







IsCatalogInMostPopularTable: catalog: 48235, numindb: 21
Update: records affected: 1



GetName: 48235 ONEWEB-0203

Hit Count: updated at: Thu, 24 Jun 2021 02:18:50 GMT